Location: Kapla
(46.2483°N, 15.0094°E)
Time: 14:27:17
(UTC+00:00)

Nadezhda 3 Rocket - Pass Details

Date: 03 March 2021
Orbit: 957 x 999 km, 82.9° (Epoch: 17 April)

Event Time Altitude Azimuth Distance (km) Brightness Sun altitude
Rises 17:27:11 0° 353° (N) 3,725 7.1 -7.4°
Reaches altitude 10° 17:29:45 10° 357° (N) 2,775 6.4 -7.8°
Maximum altitude 17:36:05 62° 78° (ENE) 1,116 4.1 -8.9°
Drops below altitude 10° 17:42:22 10° 159° (SSE) 2,761 6.2 -10.0°
Sets 17:44:55 0° 163° (SSE) 3,704 6.8 -10.4°
